Flag for Poland Weather past 2 weeks in Wroclaw, Poland

27 °F

Sleet. Ice fog.

Feels Like: 27 °F
Forecast: 31 / 42 °F
Wind: 2 mph from South

Location: Wroclaw Ii

Current Time: Nov 28, 2015 at 7:37:00 AM

Latest Report: Nov 28, 2015 at 7:00 AM

Visibility: 2 mi

Pressure: 29.83 "Hg

Humidity: 93%

Dew point: 25 °F

Location of WroclawLocation

Historic Weather in Wroclaw — Graph


Wroclaw temperature yesterday

Maximum temperature yesterday: 41 °F (at 12:30 PM)
Minimum temperature yesterday: 28 °F (at 11:00 PM)
Average temperature yesterday: 37 °F

Past Weeks' High & Low Weather Summary

High61 °F (Nov 18, 6:00 AM)94% (Nov 15, 1:30 PM)30.30 "Hg (Nov 15, 1:30 PM)
Low25 °F (Nov 23, 4:30 AM)47% (Nov 14, 12:00 PM)29.39 "Hg (Nov 21, 4:00 AM)
Average43 °F80%29.88 "Hg
* Reported Nov 13 6:00 AM — Nov 28 6:00 AM, Wroclaw, Weather by CustomWeather, © 2015

Note: Actual official high and low records may vary slightly from our data, if they occured in-between our weather recording intervals... More about our weather records


Wroclaw weather history for previous 24 hours

Time TempWeatherWind HumidityBarometerVisibility
6:00 AM
Sat, Nov 28
28 °FIce fog.3 mph86%29.86 "Hg2 mi
5:30 AM30 °FIce fog.7 mph86%29.86 "Hg2 mi
5:00 AM30 °FIce fog.5 mph93%29.86 "Hg3 mi
4:30 AM30 °FIce fog.5 mph86%29.86 "Hg3 mi
4:00 AM30 °FIce fog.2 mph86%29.86 "Hg3 mi
3:30 AM30 °FIce fog.1 mph86%29.89 "Hg3 mi
3:00 AM28 °FIce fog.No wind93%29.89 "Hg3 mi
2:30 AM28 °FIce fog.3 mph86%29.92 "Hg3 mi
1:00 AM27 °FIce fog.3 mph86%29.95 "Hg2 mi
12:00 AM28 °FIce fog.5 mph86%29.95 "Hg2 mi
11:30 PM
Fri, Nov 27
28 °FIce fog.3 mph86%29.98 "Hg1 mi
11:00 PM28 °FIce fog.3 mph86%29.98 "Hg1 mi
10:30 PM30 °FIce fog.2 mph86%30.01 "Hg1 mi
10:00 PM30 °FIce fog.2 mph86%30.01 "Hg1 mi
9:30 PM30 °FIce fog.3 mph93%30.01 "Hg2 mi
9:00 PM34 °FFog.3 mph87%30.04 "Hg2 mi
8:30 PM34 °FFog.3 mph87%30.04 "Hg3 mi
8:00 PM34 °FPassing clouds.1 mph87%30.04 "Hg4 mi
7:30 PM36 °FPassing clouds.2 mph87%30.04 "Hg4 mi
7:00 PM37 °FPassing clouds.3 mph87%30.07 "Hg4 mi
6:30 PM37 °FPassing clouds.3 mph87%30.07 "Hg4 mi
6:00 PM37 °FPassing clouds.5 mph87%30.07 "Hg4 mi
5:30 PM37 °FPassing clouds.3 mph93%30.07 "Hg4 mi
5:00 PM37 °FOvercast.2 mph87%30.07 "Hg4 mi
4:30 PM39 °FFog.3 mph81%30.09 "Hg3 mi
4:00 PM39 °FFog.3 mph81%30.09 "Hg3 mi
3:30 PM39 °FFog.3 mph81%30.09 "Hg3 mi
3:00 PM39 °FFog.3 mph81%30.09 "Hg3 mi
2:30 PM39 °FFog.5 mph81%30.09 "Hg3 mi
2:00 PM39 °FFog.5 mph87%30.12 "Hg3 mi
1:30 PM39 °FFog.3 mph93%30.12 "Hg2 mi
1:00 PM41 °FFog.3 mph87%30.12 "Hg2 mi
12:30 PM41 °FFog.3 mph87%30.12 "Hg2 mi
12:00 PM39 °FFog.2 mph93%30.12 "Hg2 mi
11:30 AM39 °FFog.2 mph87%30.12 "Hg2 mi
11:00 AM39 °FFog.2 mph87%30.15 "Hg2 mi
10:30 AM39 °FFog.1 mph87%30.15 "Hg2 mi
10:00 AM37 °FFog.2 mph93%30.15 "Hg2 mi
9:30 AM37 °FFog.1 mph87%30.15 "Hg2 mi
9:00 AM37 °FFog.No wind87%30.15 "Hg2 mi
7:30 AM36 °FFog.2 mph93%30.15 "Hg2 mi
7:00 AM37 °FFog.1 mph87%30.15 "Hg2 mi
Weather by CustomWeather, © 2015

See weather overviewHow to use our weather pages